[[{"header":{"parameterUnit":"m.s-1","parameterCategory":1,"la1":30.2991,"la2":30.254,"lo1":-89.0895,"lo2":-89.0444,"dy":0.0017,"dx":0.0017,"nx":28,"ny":28,"refTime":"2024-04-19T09:00:00:Z","depth":0,"parameterNumber":2,"parameterNumberName":"U-component_of_WINDS"},"data":[0,0,0,0,0,0,0,0,0,0,0,0,0,0,0,0,0,0,0,0,0,0,0,0,0,0,0,0,0,0,0,0,0,0,0,0,0,0,0,0,0,0,0,0,0,0,0,0,0,0,0,0,0,0,0,0,0,0,0.3402,0.3403,0,0.3489,0.349,0.3491,0.3519,0.3519,0.3518,0.3518,0.3609,0.3612,0.3615,0,0,0,0,0,0,0,0,0,0,0,0,0,0.3261,0.3264,0.3402,0.3403,0.3405,0.3489,0.349,0.3492,0.3519,0.3519,0.3518,0.3518,0.3608,0.3611,0.3615,0,0,0,0,0,0,0,0,0,0,0,0,0,0.3333,0.3265,0.3402,0.3428,0.3432,0.3489,0.349,0.3492,0.3519,0.3519,0.3518,0.3518,0.3607,0.3611,0.3615,0.3653,0,0,0.3628,0.363,0,0,0,0,0,0,0,0,0.3329,0.3338,0.3424,0.3427,0.343,0.3493,0.3474,0.3546,0.352,0.3486,0.3518,0.3517,0.3571,0.3578,0.3596,0.3657,0.3661,0.3628,0.3631,0.3633,0.3634,0,0,0,0,0,0,0,0.3324,0.3335,0.3437,0.3425,0.3429,0.3436,0.3446,0.3488,0.3531,0.3489,0.3491,0.3501,0.3573,0.3592,0.3598,0.3663,0.3628,0.3632,0.3635,0.3636,0.3759,0.376,0,0,0,0,0,0,0.3314,0.333,0.3434,0.3439,0.3377,0.3439,0.345,0.3473,0.3531,0.3539,0.3501,0.3502,0.3585,0.3593,0.3601,0.3649,0.3633,0.3637,0.3639,0.3758,0.3759,0.376,0,0,0,0,0,0,0.3311,0.3323,0.3431,0.3385,0.34,0.3442,0.3469,0.3475,0.3494,0.354,0.3548,0.3513,0.3585,0.3596,0.364,0.3653,0.3639,0.3642,0.3757,0.3759,0.376,0.3745,0,0,0,0,0,0,0.3307,0.3322,0.3337,0.3386,0.3402,0.3467,0.3469,0.3478,0.3501,0.3503,0.3553,0.356,0.3585,0.3633,0.3644,0.3658,0.3646,0.3756,0.3758,0.3759,0.3744,0.3745,0.3746,0,0,0,0,0,0.3302,0.333,0.3337,0.335,0.3421,0.3468,0.3477,0.3504,0.3502,0.3517,0.3546,0.3559,0.3649,0.3638,0.365,0.3665,0.3756,0.3757,0.3759,0.3744,0.3745,0.3746,0,0,0,0,0,0,0.3282,0.3337,0.3346,0.339,0.3424,0.3472,0.3492,0.3505,0.3541,0.3541,0.3574,0.3585,0.3626,0.365,0.3636,0.3705,0.3703,0.3707,0.3687,0.3689,0.369,0.3683,0.3649,0,0,0,0,0,0.3283,0.3315,0.3362,0.3396,0.3413,0.3449,0.3471,0.3489,0.3525,0.354,0.3573,0.3608,0.3645,0.3668,0.3704,0.3748,0.3759,0.3765,0.3765,0.3766,0.3769,0.3793,0.3796,0.3765,0.3765,0.3765,0,0,0.3285,0.3319,0.3337,0.3393,0.3422,0.3455,0.3461,0.3497,0.3522,0.3546,0.3589,0.3614,0.3656,0.37,0.3721,0.3721,0.378,0.3768,0.3768,0.3771,0.3795,0.3798,0.3801,0.3767,0.3766,0.3766,0,0,0.3305,0.3334,0.3366,0.3394,0.3436,0.346,0.3468,0.3514,0.3532,0.3575,0.3594,0.3624,0.3687,0.3715,0.3738,0.3768,0.3781,0.3779,0.3784,0.3807,0.3809,0.3812,0.3822,0.3826,0.3782,0.3782,0.3782,0,0.3303,0.3353,0.3381,0.3415,0.3439,0.3461,0.3493,0.3519,0.3571,0.3587,0.3587,0.3665,0.3695,0.3745,0.3752,0.377,0.378,0.3774,0.3807,0.3809,0.3812,0.3822,0.3826,0.3782,0.3782,0.3782,0.3782,0,0.3348,0.3382,0.3403,0.3452,0.3478,0.3511,0.3544,0.3567,0.3582,0.3606,0.365,0.3687,0.373,0.3744,0.3759,0.3796,0.3795,0.38,0.3799,0.3814,0.3824,0.3828,0.3781,0.3781,0.3782,0.3782,0,0,0.3359,0.3422,0.3429,0.3451,0.3499,0.3526,0.356,0.3602,0.3621,0.3656,0.3685,0.3737,0.3742,0.3767,0.3787,0.3807,0.3828,0.381,0.3811,0.3812,0.387,0.3865,0.3869,0.3836,0.3837,0.3838,0.3866,0,0.3385,0.3446,0.3471,0.3521,0.3553,0.3574,0.3603,0.3636,0.3659,0.369,0.3716,0.3752,0.3756,0.3771,0.3792,0.3821,0.384,0.3819,0.3864,0.3865,0.3852,0.3875,0.3871,0.3896,0.387,0.3871,0.3872,0,0.3425,0.3459,0.3511,0.3554,0.3568,0.3594,0.3634,0.3663,0.3701,0.3716,0.3744,0.3762,0.3799,0.3795,0.3846,0.3831,0.3851,0.3867,0.3869,0.3874,0.3869,0.3881,0.3904,0.3908,0.3878,0.3878,0.3877,0,0.3427,0.3486,0.3525,0.3543,0.3594,0.3612,0.3634,0.3671,0.3694,0.3729,0.3744,0.3783,0.3805,0.3834,0.3862,0.3857,0.391,0.3909,0.3924,0.3923,0.3934,0.3933,0.3961,0.3947,0.3947,0.3947,0.3947,0,0.3454,0.3485,0.3526,0.355,0.3585,0.3614,0.3648,0.3672,0.3704,0.3733,0.3754,0.378,0.3816,0.3847,0.3869,0.3907,0.3917,0.393,0.3936,0.3929,0.3927,0.3942,0.3941,0.3948,0.3948,0.3948,0.3948,0,0.3462,0.3492,0.3535,0.3579,0.3591,0.3615,0.3654,0.3678,0.3701,0.3737,0.3748,0.3785,0.3823,0.3853,0.3903,0.3918,0.3958,0.3964,0.3945,0.3948,0.3961,0.3959,0.4,0.4007,0.3988,0.3988,0.3988,0,0.3478,0.3502,0.3548,0.3569,0.3591,0.3623,0.3647,0.3676,0.3699,0.3743,0.3761,0.38,0.3833,0.3892,0.3925,0.3962,0.397,0.3981,0.3976,0.3967,0.397,0.3968,0.397,0.3982,0.3982,0.3982,0.3982,0,0.3501,0.3514,0.3546,0.3584,0.3611,0.3642,0.3673,0.3689,0.3724,0.3749,0.3787,0.3812,0.3862,0.3901,0.3942,0.3966,0.398,0.3984,0.3989,0.3982,0.3969,0.3976,0.3946,0.3983,0.3983,0.3983,0.3983,0.3983,0.3513,0.3535,0.3571,0.3607,0.3633,0.3662,0.3686,0.3712,0.3745,0.3787,0.3802,0.3841,0.3878,0.3934,0.3958,0.3989,0.3991,0.3999,0.4001,0.4002,0.4001,0.3964,0.3997,0.3997,0.3997,0.3997,0.3997,0,0.3538,0.3562,0.3594,0.3636,0.3664,0.3674,0.3709,0.3732,0.3766,0.3798,0.3829,0.3873,0.391,0.3944,0.3983,0.4002,0.4009,0.4011,0.401,0.4015,0.3998,0.3989,0.4004,0.4004,0.4004,0.4004,0.4004,0.4004,0.3553,0.3591,0.3608,0.3659,0.3683,0.372,0.374,0.3766,0.3792,0.3839,0.387,0.3892,0.3925,0.3966,0.4001,0.401,0.4023,0.4023,0.4034,0.4017,0.4016,0.4015,0.4007,0.4026,0.4026,0.4049,0.4049,0.4049]},{"header":{"parameterUnit":"m.s-1","parameterCategory":1,"la1":30.2991,"la2":30.254,"lo1":-89.0895,"lo2":-89.0444,"dy":0.0017,"dx":0.0017,"nx":28,"ny":28,"refTime":"2024-04-19T09:00:00:Z","depth":0,"parameterNumber":3,"parameterNumberName":"V-component_of_WINDS"},"data":[0,0,0,0,0,0,0,0,0,0,0,0,0,0,0,0,0,0,0,0,0,0,0,0,0,0,0,0,0,0,0,0,0,0,0,0,0,0,0,0,0,0,0,0,0,0,0,0,0,0,0,0,0,0,0,0,0,0,1.9014,1.9014,0,1.9042,1.9042,1.9043,1.9025,1.9024,1.9023,1.9022,1.9048,1.9049,1.9051,0,0,0,0,0,0,0,0,0,0,0,0,0,1.8941,1.8942,1.9014,1.9014,1.9014,1.9042,1.9042,1.9043,1.9025,1.9024,1.9023,1.9022,1.9047,1.9049,1.9051,0,0,0,0,0,0,0,0,0,0,0,0,0,1.8971,1.8943,1.9013,1.9009,1.9009,1.9042,1.9042,1.9043,1.9025,1.9024,1.9023,1.9022,1.9047,1.9049,1.9051,1.9089,0,0,1.9058,1.9059,0,0,0,0,0,0,0,0,1.8969,1.8974,1.9009,1.9009,1.9009,1.9029,1.9026,1.9058,1.9026,1.9019,1.9022,1.9021,1.9042,1.9045,1.9053,1.909,1.9091,1.9058,1.9059,1.906,1.9061,0,0,0,0,0,0,0,1.8967,1.8972,1.9025,1.901,1.901,1.9004,1.9007,1.9032,1.9037,1.9019,1.9018,1.9022,1.9042,1.9051,1.9053,1.9092,1.9058,1.906,1.9061,1.9062,1.9162,1.9163,0,0,0,0,0,0,1.8966,1.8971,1.9024,1.9025,1.8986,1.9007,1.901,1.9024,1.9037,1.9038,1.9023,1.9021,1.9047,1.9051,1.9054,1.91,1.906,1.9062,1.9063,1.9161,1.9162,1.9164,0,0,0,0,0,0,1.8964,1.8971,1.9023,1.8998,1.9004,1.9009,1.9025,1.9025,1.9033,1.904,1.904,1.9031,1.9047,1.9051,1.9081,1.91,1.9063,1.9065,1.9159,1.9161,1.9163,1.9191,0,0,0,0,0,0,1.8962,1.897,1.8986,1.8998,1.9005,1.905,1.9026,1.9026,1.9038,1.9035,1.9047,1.9048,1.9046,1.9078,1.9083,1.9103,1.9067,1.9157,1.916,1.9163,1.9189,1.9194,1.9199,0,0,0,0,0,1.896,1.8992,1.8987,1.8993,1.9025,1.9051,1.9055,1.9053,1.9039,1.9054,1.9058,1.9048,1.9097,1.9081,1.9087,1.9107,1.9156,1.9159,1.9162,1.9186,1.9193,1.9198,0,0,0,0,0,0,1.898,1.8993,1.8988,1.9025,1.9037,1.9048,1.9067,1.906,1.9076,1.9073,1.9069,1.9072,1.9103,1.9108,1.909,1.9145,1.9124,1.9129,1.9141,1.9147,1.9152,1.915,1.9069,0,0,0,0,0,1.8989,1.901,1.902,1.9052,1.9059,1.9062,1.9073,1.9071,1.9083,1.9088,1.9094,1.9105,1.9123,1.9135,1.9152,1.9189,1.9191,1.9206,1.9211,1.9215,1.9219,1.9239,1.9246,1.9174,1.9174,1.9174,0,0,1.9007,1.9017,1.903,1.9056,1.9065,1.9087,1.9066,1.909,1.9105,1.9091,1.912,1.9125,1.9137,1.9171,1.9186,1.9176,1.9239,1.9219,1.9222,1.9224,1.9243,1.9249,1.9255,1.9176,1.9176,1.9175,0,0,1.9051,1.9061,1.9089,1.9099,1.9114,1.9116,1.9123,1.9135,1.9138,1.9167,1.9157,1.9175,1.9206,1.9216,1.9224,1.9273,1.9263,1.9278,1.9304,1.9324,1.9329,1.9334,1.9352,1.9358,1.9282,1.9282,1.9282,0,1.9071,1.9105,1.9103,1.9128,1.914,1.9129,1.9156,1.9166,1.9185,1.9193,1.9181,1.9221,1.9228,1.9264,1.9276,1.9283,1.929,1.9277,1.9329,1.9334,1.9338,1.9355,1.9362,1.9284,1.9283,1.9283,1.9283,0,1.9129,1.9152,1.9172,1.9193,1.9207,1.9232,1.9234,1.9248,1.9244,1.9247,1.9277,1.9286,1.9305,1.9313,1.9309,1.9348,1.9341,1.933,1.9309,1.9347,1.9363,1.9369,1.9286,1.9286,1.9285,1.9285,0,0,1.9186,1.9207,1.9214,1.9223,1.9239,1.9257,1.9282,1.9301,1.9313,1.9327,1.9347,1.9374,1.9364,1.9374,1.9371,1.9388,1.9426,1.9374,1.9374,1.9383,1.947,1.9479,1.9486,1.942,1.9421,1.9422,1.9469,0,1.9232,1.9278,1.9277,1.9319,1.934,1.933,1.9352,1.9364,1.9367,1.9384,1.9387,1.9407,1.9391,1.9398,1.9414,1.9418,1.9443,1.9414,1.9438,1.9439,1.9436,1.9494,1.9504,1.9548,1.9475,1.9476,1.9476,0,1.9291,1.9308,1.9353,1.9366,1.9375,1.9395,1.9413,1.943,1.9442,1.9444,1.9455,1.945,1.9474,1.9453,1.9487,1.9467,1.9477,1.948,1.9482,1.9484,1.946,1.9498,1.9561,1.9568,1.9486,1.9485,1.9484,0,1.9329,1.9363,1.9394,1.9402,1.9418,1.9433,1.944,1.9451,1.9463,1.9479,1.9486,1.9504,1.9513,1.9526,1.9525,1.951,1.9559,1.9538,1.9561,1.9561,1.9572,1.9571,1.9638,1.9577,1.9577,1.9577,1.9577,0,1.938,1.9407,1.9411,1.943,1.9461,1.946,1.9489,1.9495,1.9505,1.9524,1.9516,1.9534,1.9532,1.955,1.9549,1.9577,1.9581,1.9582,1.9581,1.9583,1.9583,1.9589,1.9586,1.9579,1.9579,1.9578,1.9578,0,1.9427,1.9431,1.9464,1.9478,1.9481,1.9503,1.9514,1.9531,1.9534,1.9559,1.9564,1.9569,1.9589,1.959,1.9612,1.9612,1.9646,1.9642,1.9642,1.9642,1.9664,1.9662,1.9738,1.9747,1.9681,1.9681,1.9682,0,1.946,1.9481,1.9497,1.951,1.9519,1.9539,1.9552,1.9551,1.9565,1.9581,1.9596,1.9617,1.9633,1.9666,1.967,1.9688,1.9684,1.9709,1.9686,1.9687,1.9685,1.9684,1.9686,1.9713,1.9714,1.9715,1.9715,0,1.9517,1.9518,1.9537,1.9558,1.9573,1.9589,1.9603,1.9614,1.9615,1.963,1.9651,1.9664,1.9688,1.9708,1.9725,1.9731,1.9723,1.9723,1.9729,1.9731,1.973,1.9731,1.9655,1.9721,1.972,1.972,1.972,1.9719,1.9558,1.9577,1.9591,1.9613,1.9624,1.9638,1.9655,1.9661,1.9679,1.97,1.9698,1.9722,1.9734,1.9757,1.9764,1.9782,1.9773,1.9782,1.9785,1.9787,1.979,1.9727,1.9785,1.9785,1.9785,1.9785,1.9785,0,1.9615,1.9624,1.9644,1.9666,1.9683,1.9675,1.969,1.9705,1.9727,1.9739,1.9755,1.978,1.98,1.9806,1.9824,1.9838,1.9834,1.9842,1.9842,1.9843,1.9796,1.9789,1.9845,1.9845,1.9845,1.9845,1.9845,1.9845,1.9647,1.9678,1.9681,1.9718,1.9726,1.9751,1.976,1.9773,1.9783,1.9811,1.9828,1.9832,1.9842,1.9861,1.9878,1.988,1.9887,1.9896,1.9896,1.9852,1.9846,1.9841,1.9834,1.9898,1.9898,1.9942,1.9942,1.9942]}]]